Location: Ahausen
(50.4985°N, 8.2722°E)
Time: 10:35:25
(UTC+00:00)

Cosmos 1025 Rocket - Visible Passes

Search period start: 18 January 2021 00:00
Search period end: 28 January 2021 00:00
Orbit: 594 x 617 km, 82.5° (Epoch: 17 January)

Date Brightness Start Highest point End Pass type
(mag) Time Alt. Az. Time Alt. Az. Time Alt. Az.
18 Jan 5.4 17:42:46 10° WSW 17:46:09 22° WNW 17:49:35 10° NNW visible
19 Jan 5.9 17:57:10 10° W 17:59:41 15° WNW 18:02:13 10° NNW visible
20 Jan 3.4 16:30:28 10° SSW 16:34:47 70° WNW 16:39:09 10° N visible
21 Jan 4.3 16:43:58 10° SSW 16:48:07 43° WNW 16:52:19 10° N visible
22 Jan 5.0 16:57:45 10° SW 17:01:31 28° WNW 17:05:21 10° N visible
23 Jan 5.6 17:11:51 10° WSW 17:15:00 19° WNW 17:18:11 10° NNW visible
24 Jan 5.9 17:26:29 10° W 17:28:33 13° WNW 17:30:39 10° NNW visible
